[Iaude] MPEC W67: 2016 WV2 [a=2.30,e=0.57,i=0.5,H=26.4]

mpec at si.edu mpec at si.edu
Thu Nov 24 09:39:16 EST 2016


M.P.E.C. 2016-W67                                Issued 2016 Nov. 24, 14:33 UT
 
     The Minor Planet Electronic Circulars contain information on unusual
         minor planets and routine data on comets.  They are published
    on behalf of Division F of the International Astronomical Union by the
          Minor Planet Center, Smithsonian Astrophysical Observatory,
                          Cambridge, MA 02138, U.S.A.

             Prepared using the Tamkin Foundation Computer Network

                              MPC at CFA.HARVARD.EDU
            URL http://www.minorplanetcenter.net/    ISSN 1523-6714


                                   2016 WV2
 
Observations:
     K16W02V* C2016 11 23.30811 03 16 39.28 +43 01 56.4          19.9 VqEW067G96
     K16W02V  C2016 11 23.31935 03 17 13.78 +43 05 37.0          18.7 VqEW067G96
     K16W02V  C2016 11 23.32494 03 17 30.81 +43 07 24.6          18.4 VqEW067G96
     K16W02V  C2016 11 23.40406 03 21 41.27 +43 32 39.4          18.9 VqEW067I52
     K16W02V  C2016 11 23.40552 03 21 45.99 +43 33 06.1                qEW067I52
     K16W02V  C2016 11 23.40593 03 21 47.36 +43 33 14.5          18.7 VqEW067I52
     K16W02V  C2016 11 23.40657 03 21 49.40 +43 33 26.5          18.3 VqEW067I52
     K16W02V  C2016 11 23.78668 03 45 52.46 +45 33 31.5                qEW067246
     K16W02V  C2016 11 23.78688 03 45 53.26 +45 33 35.2                qEW067246
     K16W02V  C2016 11 23.78720 03 45 54.50 +45 33 42.0                qEW067246
     K16W02V  C2016 11 23.78744 03 45 55.33 +45 33 45.9          18.7 RqEW067246
     K16W02V  C2016 11 23.78755 03 45 55.83 +45 33 48.2                qEW067246
     K16W02V  C2016 11 23.78789 03 45 57.12 +45 33 54.6                qEW067246
     K16W02V  C2016 11 23.78802 03 45 57.60 +45 33 57.4                qEW067246
     K16W02V KC2016 11 23.86883 03 51 09.33 +45 59 30.1          18.6 VSEW067C43
     K16W02V KC2016 11 23.87210 03 51 22.14 +46 00 31.8          18.8 VSEW067C43
     K16W02V KC2016 11 23.87537 03 51 34.95 +46 01 32.5          18.8 VSEW067C43
     K16W02V KC2016 11 23.88223 03 51 58.07 +46 04 28.3          19.0 V EW067L04
     K16W02V KC2016 11 23.88424 03 52 05.85 +46 05 05.4          18.9 V EW067L04
     K16W02V KC2016 11 23.88817 03 52 21.23 +46 06 17.1          18.9 V EW067L04
     K16W02V KC2016 11 23.90351 03 53 23.14 +46 10 45.3          18.2 RoEW067K88
     K16W02V KC2016 11 23.90584 03 53 32.28 +46 11 27.6          18.3 RoEW067K88
     K16W02V KC2016 11 23.90818 03 53 41.45 +46 12 09.9          18.7 RoEW067K88
     K16W02V  C2016 11 24.31865 04 23 47.43 +48 06 17.2          18.6 VqEW067I52
     K16W02V  C2016 11 24.32316 04 24 07.56 +48 07 22.4          18.8 VqEW067I52
     K16W02V  C2016 11 24.32711 04 24 25.13 +48 08 18.5                qEW067I52
     K16W02V  C2016 11 24.33167 04 24 45.60 +48 09 24.2          18.9 VqEW067I52
     K16W02V  C2016 11 24.34942 04 26 05.45 +48 13 34.3          18.3 VqEW067G96
     K16W02V  C2016 11 24.35534 04 26 32.12 +48 14 55.6                qEW067G96
     K16W02V  C2016 11 24.35963 04 26 51.43 +48 15 54.4                qEW067G96
     K16W02V  C2016 11 24.36603 04 27 20.46 +48 17 21.5                qEW067G96
     K16W02V  C2016 11 24.44301 04 33 14.93 +48 33 46.5          18.8 RoEW067926
     K16W02V  C2016 11 24.44407 04 33 19.97 +48 33 59.6          18.8 RoEW067926
     K16W02V  C2016 11 24.44514 04 33 24.89 +48 34 11.8          18.8 RoEW067926
     K16W02V  C2016 11 24.47057 04 35 25.17 +48 39 07.9          18.8 RoEW067926
     K16W02V  C2016 11 24.47163 04 35 30.16 +48 39 20.0          18.6 RoEW067926
     K16W02V  C2016 11 24.47270 04 35 34.94 +48 39 31.5          18.9 RoEW067926
 
Observer details:
246 Klet Observatory-KLENOT.  Observers M. Tichy, J. Ticha.  Measurer M. Tichy.
    1.06-m KLENOT Telescope + CCD.
926 Tenagra II Observatory.  Observers M. Schwartz, P. R. Holvorcem.  Measurer
    M. Schwartz.  0.81-m f/7 Ritchey-Chretien + CCD.
C43 Hoyerswerda.  Observer P. Lindner.  0.30-m f/6.3 Schmidt-Cassegrain + CCD.
G96 Mt. Lemmon Survey.  Observers R. G. Matheny, G. J. Leonard.  Measurers
    E. J. Christensen, D. C. Fuls, A. R. Gibbs, A. D. Grauer, J. A. Johnson,
    R. A. Kowalski, S. M. Larson, G. J. Leonard, R. G. Matheny, R. L. Seaman,
    F. C. Shelly.  1.5-m reflector + 10K CCD.
I52 Steward Observatory, Mt. Lemmon Station.  Observers D. C. Fuls,
    J. A. Johnson.  Measurers E. J. Christensen, D. C. Fuls, A. R. Gibbs,
    A. D. Grauer, J. A. Johnson, R. A. Kowalski, S. M. Larson, G. J. Leonard,
    R. G. Matheny, R. L. Seaman, F. C. Shelly.  1.0-m reflector + CCD.
K88 GINOP-KHK, Piszkesteto.  Observers B. Cseh, K. Sarneczky.  Measurer
    K. Sarneczky.  0.60-m Schmidt + CCD.
L04 ROASTERR-1 Observatory, Cluj-Napoca.  Observer L. Hudin.  0.3-m f/5.0
    reflector + CCD.
 
Orbital elements:
2016 WV2                                                 Earth MOID = 0.0078 AU
Epoch 2017 Feb. 16.0 TT = JDT 2457800.5                 MPC
M  19.93930              (2000.0)            P               Q
n   0.28188494     Peri.  133.03491     +0.19927339     -0.97991780
a   2.3036764      Node   305.46928     +0.89650676     +0.18525028
e   0.5707778      Incl.    0.50348     +0.39568389     +0.07377964
P   3.50           H   26.4           G   0.15           U   6
Residuals in seconds of arc
161123 G96  0.1-  0.2+    161123 246  0.1+  0.2-    161124 I52  0.4-  0.3-
161123 G96  0.2-  0.1-    161123 C43  0.5-  0.1-    161124 G96  0.8+  0.3+
161123 G96 (2.5-  1.9-)   161123 C43  0.2-  0.5+    161124 G96  0.5+  0.1-
161123 I52  0.1+  0.0     161123 C43  0.0   0.2+    161124 G96  0.3-  0.0
161123 I52  0.1-  0.7-    161123 L04  0.1-  0.1-    161124 G96  0.2+  0.2+
161123 I52  0.3+  0.1+    161123 L04  0.6-  0.1+    161124 926  0.4-  0.3-
161123 I52  0.2-  0.1+    161123 L04  0.0   0.2-    161124 926  0.3+  0.2+
161123 246  0.1+  0.2+    161123 K88  0.3+  0.4+    161124 926  0.7-  0.3-
161123 246  0.5+  0.0     161123 K88  0.2+  0.4+    161124 926  0.8+  0.2+
161123 246  0.6+  0.5+    161123 K88  0.1-  0.3+    161124 926  0.3+  0.3+
161123 246  0.4-  0.3-    161124 I52  0.2-  0.1-    161124 926 (2.8-  0.4-)
161123 246  0.4+  0.2-    161124 I52  0.2-  0.2-
161123 246  0.3+  0.5-    161124 I52  1.0-  0.9-

Ephemeris:
2016 WV2                 a,e,i = 2.30, 0.57, 1                   q = 0.9888
Date    TT    R. A. (2000) Decl.     Delta      r     Elong.  Phase     V
2016 10 25    00 30 25.7 +07 19 56   0.1481  1.1328   157.8    19.4    23.5
...
2016 11 09    00 36 06.1 +11 16 13   0.07631 1.0542   145.4    32.3    22.3
...
2016 11 17    01 03 54.4 +19 34 11   0.04158 1.0232   145.6    33.1    20.9
...
2016 11 23    03 00 58.5 +41 16 49   0.02034 1.0061   156.1    23.4    19.1
2016 11 24    03 59 57.4 +46 39 02   0.01835 1.0038   153.9    25.6    18.9
2016 11 25    05 21 52.0 +50 01 43   0.01731 1.0016   146.9    32.6    19.0
...
2016 12 01    10 20 56.9 +25 05 09   0.03008 0.9922   100.8    77.5    21.5
...
2016 12 09    11 13 58.8 +11 08 22   0.06194 0.9890    92.0    84.4    23.3
...
2016 12 24    11 34 03.0 +04 49 57   0.1224  1.0125   100.2    72.9    24.4

A. U. Tomatic                (C) Copyright 2016 MPC           M.P.E.C. 2016-W67




More information about the Iaude mailing list